DLH9YW EDDF-EGCC

Flight info

Callsign DLH9YW
Flight time 1h 22m
Altitude 34000
Route OBOKA3W/25C OBOKA Z29 TORNU DCT BATAK DCT GALSO Q63 ERING L179 LAM UN57 WELIN T420 ELVOS
Aircraft A21N/M-SDE2E3FGHIRWXY/LB1

Departure

Time 2026-05-04 16:46
Airport Frankfurt Main Airport (EDDF)

Arrival

Time 2026-05-04 18:08
Airport Manchester Airport (EGCC)
Time Latitude Longitude Altitude Speed Heading
2026-05-04 16:17 50.04576 8.56633 355 ft 0 kts 115°
2026-05-04 16:34 50.04580 8.56621 357 ft 4 kts 115°
2026-05-04 16:35 50.04610 8.56513 354 ft 4 kts 125°
2026-05-04 16:35 50.04611 8.56483 354 ft 4 kts 205°
2026-05-04 16:36 50.04586 8.56465 359 ft 4 kts 205°
2026-05-04 16:36 50.04572 8.56455 354 ft 0 kts 205°
2026-05-04 16:39 50.04477 8.56251 358 ft 16 kts 248°
2026-05-04 16:39 50.04348 8.56055 357 ft 8 kts 161°
2026-05-04 16:40 50.04340 8.56059 358 ft 3 kts 162°
2026-05-04 16:40 50.04249 8.56231 359 ft 9 kts 159°
2026-05-04 16:41 50.04158 8.56405 357 ft 13 kts 70°
2026-05-04 16:41 50.04316 8.57069 357 ft 29 kts 70°
2026-05-04 16:42 50.04525 8.57944 355 ft 22 kts 70°
2026-05-04 16:43 50.04630 8.58380 361 ft 24 kts 69°
2026-05-04 16:43 50.04602 8.58583 357 ft 8 kts 162°
2026-05-04 16:43 50.04521 8.58620 364 ft 15 kts 181°
2026-05-04 16:44 50.04473 8.58533 362 ft 0 kts 250°
2026-05-04 16:45 50.04454 8.58451 361 ft 29 kts 250°
2026-05-04 16:46 50.03549 8.54683 988 ft 166 kts 250°
2026-05-04 16:46 50.02812 8.51240 2561 ft 175 kts 248°
2026-05-04 16:47 50.01077 8.48392 3807 ft 193 kts 205°
2026-05-04 16:47 49.98859 8.47739 5349 ft 195 kts 191°
2026-05-04 16:48 49.94827 8.46533 7998 ft 204 kts 199°
2026-05-04 16:48 49.93406 8.45849 8546 ft 225 kts 198°
2026-05-04 16:49 49.90753 8.43110 10323 ft 239 kts 233°
2026-05-04 16:49 49.89057 8.38541 12059 ft 251 kts 245°
2026-05-04 16:50 49.88680 8.33008 12957 ft 273 kts 271°
2026-05-04 16:50 49.89466 8.26482 12969 ft 341 kts 288°
2026-05-04 16:51 49.92104 8.20187 12966 ft 351 kts 303°
2026-05-04 16:51 49.93568 8.17223 12967 ft 352 kts 306°
2026-05-04 16:51 49.97186 8.11941 13514 ft 362 kts 315°
2026-05-04 16:52 50.01005 8.06834 15209 ft 365 kts 315°
2026-05-04 16:52 50.02963 8.04202 15979 ft 369 kts 315°
2026-05-04 16:53 50.06889 7.98924 17468 ft 377 kts 315°
2026-05-04 16:53 50.12898 7.90833 19426 ft 388 kts 315°
2026-05-04 16:54 50.14953 7.88063 20049 ft 392 kts 315°
2026-05-04 16:55 50.23365 7.76703 22383 ft 409 kts 316°
2026-05-04 16:55 50.28268 7.71881 23488 ft 425 kts 332°
2026-05-04 16:56 50.33744 7.68162 24453 ft 432 kts 333°
2026-05-04 16:56 50.42105 7.62430 25856 ft 442 kts 332°
2026-05-04 16:57 50.44927 7.60488 26300 ft 445 kts 332°
2026-05-04 16:57 50.50633 7.56554 27139 ft 451 kts 332°
2026-05-04 16:58 50.59006 7.49724 28307 ft 454 kts 322°
2026-05-04 16:58 50.61659 7.46994 28685 ft 456 kts 322°
2026-05-04 16:59 50.67009 7.41510 29411 ft 462 kts 322°
2026-05-04 17:00 50.76353 7.28101 30707 ft 450 kts 294°
2026-05-04 17:00 50.80650 7.14903 31730 ft 450 kts 291°
2026-05-04 17:01 50.83505 7.06101 32543 ft 449 kts 291°
2026-05-04 17:01 50.86341 6.97328 33289 ft 447 kts 291°
2026-05-04 17:02 50.89161 6.88569 33954 ft 446 kts 291°
2026-05-04 17:03 50.93356 6.75489 33992 ft 444 kts 291°
2026-05-04 17:03 50.97541 6.62372 33990 ft 444 kts 291°
2026-05-04 17:04 51.03104 6.44829 33970 ft 445 kts 290°
2026-05-04 17:05 51.08628 6.27280 33955 ft 443 kts 290°
2026-05-04 17:06 51.12672 6.14153 33948 ft 440 kts 287°
2026-05-04 17:07 51.15355 6.01976 33959 ft 433 kts 278°
2026-05-04 17:07 51.17089 5.91178 33963 ft 433 kts 278°
2026-05-04 17:08 51.20494 5.77688 33964 ft 444 kts 292°
2026-05-04 17:09 51.23686 5.69205 33960 ft 447 kts 294°
2026-05-04 17:09 51.26897 5.60687 33969 ft 448 kts 294°
2026-05-04 17:10 51.34880 5.39338 33959 ft 447 kts 294°
2026-05-04 17:11 51.38061 5.30781 33958 ft 447 kts 294°
2026-05-04 17:12 51.42821 5.17911 33950 ft 448 kts 294°
2026-05-04 17:13 51.50745 4.96349 33945 ft 450 kts 294°
2026-05-04 17:14 51.56640 4.78712 33946 ft 443 kts 284°
2026-05-04 17:14 51.58163 4.69228 33956 ft 435 kts 273°
2026-05-04 17:15 51.58655 4.64423 33961 ft 436 kts 274°
2026-05-04 17:16 51.60671 4.45158 33976 ft 437 kts 274°
2026-05-04 17:17 51.62667 4.25855 33978 ft 437 kts 274°
2026-05-04 17:18 51.64622 4.06612 33994 ft 436 kts 274°
2026-05-04 17:19 51.66546 3.87358 33991 ft 434 kts 274°
2026-05-04 17:20 51.68427 3.68203 33990 ft 432 kts 275°
2026-05-04 17:20 51.69813 3.53878 33979 ft 430 kts 275°
2026-05-04 17:21 51.71628 3.34828 33981 ft 429 kts 275°
2026-05-04 17:22 51.72520 3.25315 33987 ft 429 kts 274°
2026-05-04 17:23 51.72726 3.11025 33982 ft 423 kts 261°
2026-05-04 17:23 51.72350 3.06332 33985 ft 422 kts 258°
2026-05-04 17:24 51.71120 2.92267 33987 ft 423 kts 259°
2026-05-04 17:25 51.69465 2.73470 33991 ft 424 kts 259°
2026-05-04 17:26 51.67777 2.54617 33996 ft 426 kts 259°
2026-05-04 17:27 51.65624 2.31056 34003 ft 427 kts 258°
2026-05-04 17:28 51.63856 2.12125 34004 ft 428 kts 258°
2026-05-04 17:29 51.61207 1.83673 34001 ft 429 kts 258°
2026-05-04 17:31 51.59340 1.59861 34002 ft 432 kts 266°
2026-05-04 17:32 51.60170 1.35655 34007 ft 434 kts 270°
2026-05-04 17:33 51.60897 1.17909 34014 ft 434 kts 270°
2026-05-04 17:34 51.61676 0.98511 34011 ft 434 kts 270°
2026-05-04 17:35 51.62578 0.74245 34017 ft 435 kts 270°
2026-05-04 17:36 51.62946 0.64534 34022 ft 435 kts 270°
2026-05-04 17:36 51.63290 0.54807 34024 ft 435 kts 270°
2026-05-04 17:37 51.63616 0.45080 34018 ft 435 kts 270°
2026-05-04 17:37 51.63928 0.35910 34014 ft 436 kts 270°
2026-05-04 17:38 51.64252 0.26169 34018 ft 436 kts 270°
2026-05-04 17:38 51.65421 0.16572 34007 ft 444 kts 289°
2026-05-04 17:38 51.66861 0.12145 34010 ft 449 kts 301°
2026-05-04 17:39 51.71049 0.04606 34023 ft 455 kts 311°
2026-05-04 17:39 51.75496 -0.02685 34060 ft 455 kts 311°
2026-05-04 17:40 51.79893 -0.09951 34057 ft 456 kts 312°
2026-05-04 17:40 51.84351 -0.17334 34034 ft 456 kts 312°
2026-05-04 17:41 51.88778 -0.24687 34040 ft 456 kts 312°
2026-05-04 17:41 51.93198 -0.32052 34037 ft 455 kts 312°
2026-05-04 17:42 51.97576 -0.39367 34036 ft 455 kts 312°
2026-05-04 17:42 52.01194 -0.45431 34030 ft 454 kts 312°
2026-05-04 17:43 52.05127 -0.52043 34044 ft 454 kts 312°
2026-05-04 17:43 52.09496 -0.59401 33441 ft 451 kts 312°
2026-05-04 17:44 52.11677 -0.63083 32547 ft 454 kts 312°
2026-05-04 17:44 52.13877 -0.66803 31479 ft 458 kts 312°
2026-05-04 17:44 52.16098 -0.70564 30368 ft 463 kts 312°
2026-05-04 17:44 52.18335 -0.74356 29318 ft 464 kts 312°
2026-05-04 17:45 52.20557 -0.78122 28622 ft 456 kts 312°
2026-05-04 17:45 52.22749 -0.81763 28158 ft 444 kts 314°
2026-05-04 17:45 52.25072 -0.85063 27384 ft 441 kts 320°
2026-05-04 17:45 52.27540 -0.87969 26925 ft 432 kts 324°
2026-05-04 17:46 52.30061 -0.90508 26641 ft 421 kts 326°
2026-05-04 17:46 52.32554 -0.92969 26085 ft 417 kts 326°
2026-05-04 17:46 52.35022 -0.95422 25540 ft 412 kts 326°
2026-05-04 17:46 52.37451 -0.97842 24982 ft 406 kts 325°
2026-05-04 17:47 52.39850 -1.00235 24458 ft 401 kts 325°
2026-05-04 17:47 52.42218 -1.02602 23927 ft 396 kts 324°
2026-05-04 17:47 52.44559 -1.04945 23327 ft 392 kts 324°
2026-05-04 17:47 52.46866 -1.07262 22791 ft 386 kts 324°
2026-05-04 17:48 52.49134 -1.09545 22255 ft 380 kts 324°
2026-05-04 17:48 52.51357 -1.11790 21432 ft 382 kts 325°
2026-05-04 17:48 52.53672 -1.14140 20846 ft 390 kts 325°
2026-05-04 17:48 52.55986 -1.16486 20539 ft 391 kts 326°
2026-05-04 17:49 52.58272 -1.18799 20051 ft 392 kts 326°
2026-05-04 17:49 52.60596 -1.21150 19462 ft 390 kts 326°
2026-05-04 17:49 52.62884 -1.23464 18967 ft 383 kts 326°
2026-05-04 17:49 52.65141 -1.25747 18434 ft 378 kts 326°
2026-05-04 17:50 52.67368 -1.28005 17863 ft 373 kts 327°
2026-05-04 17:50 52.69560 -1.30229 17346 ft 367 kts 327°
2026-05-04 17:50 52.70295 -1.30975 17164 ft 365 kts 327°
2026-05-04 17:50 52.70802 -1.31490 17027 ft 364 kts 327°
2026-05-04 17:51 52.73039 -1.33766 16181 ft 367 kts 327°
2026-05-04 17:51 52.75199 -1.35967 15713 ft 362 kts 327°
2026-05-04 17:51 52.77318 -1.38127 15436 ft 357 kts 327°
2026-05-04 17:51 52.79444 -1.40300 15012 ft 362 kts 327°
2026-05-04 17:52 52.81595 -1.42499 14496 ft 363 kts 327°
2026-05-04 17:52 52.83726 -1.44679 13985 ft 358 kts 327°
2026-05-04 17:52 52.85829 -1.46833 13449 ft 353 kts 327°
2026-05-04 17:52 52.87893 -1.48949 12953 ft 346 kts 327°
2026-05-04 17:53 52.89918 -1.51025 12468 ft 339 kts 327°
2026-05-04 17:53 52.91908 -1.53069 12001 ft 334 kts 327°
2026-05-04 17:53 52.93862 -1.55080 11538 ft 328 kts 327°
2026-05-04 17:53 52.95786 -1.57062 11081 ft 323 kts 327°
2026-05-04 17:54 52.97683 -1.59019 10633 ft 319 kts 327°
2026-05-04 17:54 52.99549 -1.60946 10333 ft 310 kts 327°
2026-05-04 17:54 53.01337 -1.62790 10196 ft 296 kts 327°
2026-05-04 17:54 53.03085 -1.64458 9958 ft 287 kts 335°
2026-05-04 17:55 53.04952 -1.65597 9520 ft 285 kts 340°
2026-05-04 17:55 53.06820 -1.66653 9088 ft 282 kts 340°
2026-05-04 17:55 53.08669 -1.67703 8666 ft 280 kts 340°
2026-05-04 17:55 53.10483 -1.68737 8403 ft 268 kts 340°
2026-05-04 17:56 53.12189 -1.69710 8246 ft 251 kts 340°
2026-05-04 17:56 53.13803 -1.70632 7913 ft 242 kts 340°
2026-05-04 17:56 53.15387 -1.71544 7459 ft 240 kts 340°
2026-05-04 17:56 53.16947 -1.72449 7121 ft 233 kts 340°
2026-05-04 17:57 53.18512 -1.73363 7050 ft 242 kts 340°
2026-05-04 17:57 53.20080 -1.74282 7043 ft 237 kts 340°
2026-05-04 17:57 53.21638 -1.75195 7044 ft 237 kts 340°
2026-05-04 17:57 53.23190 -1.76104 6882 ft 236 kts 340°
2026-05-04 17:58 53.24735 -1.77011 6591 ft 235 kts 340°
2026-05-04 17:58 53.26272 -1.77918 6258 ft 234 kts 340°
2026-05-04 17:58 53.27791 -1.78820 6066 ft 230 kts 340°
2026-05-04 17:58 53.29319 -1.79726 6042 ft 235 kts 340°
2026-05-04 17:59 53.30850 -1.80632 6038 ft 233 kts 340°
2026-05-04 17:59 53.32378 -1.81537 6045 ft 233 kts 340°
2026-05-04 17:59 53.35427 -1.83341 5868 ft 231 kts 340°
2026-05-04 18:00 53.36941 -1.84236 5544 ft 231 kts 340°
2026-05-04 18:00 53.38453 -1.85131 5197 ft 230 kts 340°
2026-05-04 18:00 53.39958 -1.86022 4877 ft 229 kts 340°
2026-05-04 18:00 53.41454 -1.86906 4578 ft 227 kts 340°
2026-05-04 18:01 53.42933 -1.87773 4337 ft 219 kts 340°
2026-05-04 18:01 53.44318 -1.88581 4201 ft 203 kts 340°
2026-05-04 18:01 53.45606 -1.89330 4057 ft 189 kts 340°
2026-05-04 18:02 53.47677 -1.91533 3467 ft 178 kts 287°
2026-05-04 18:02 53.47826 -1.93656 3732 ft 189 kts 271°
2026-05-04 18:02 53.47818 -1.95865 3524 ft 188 kts 270°
2026-05-04 18:02 53.47801 -1.97980 3487 ft 177 kts 270°
2026-05-04 18:03 53.47720 -2.00087 3494 ft 184 kts 259°
2026-05-04 18:03 53.47258 -2.02101 3495 ft 185 kts 242°
2026-05-04 18:03 53.46538 -2.03893 3494 ft 185 kts 234°
2026-05-04 18:03 53.45769 -2.05525 3378 ft 173 kts 233°
2026-05-04 18:04 53.45035 -2.07079 3142 ft 167 kts 233°
2026-05-04 18:04 53.44325 -2.08579 2921 ft 163 kts 234°
2026-05-04 18:04 53.42908 -2.11571 2475 ft 164 kts 234°
2026-05-04 18:05 53.42204 -2.13062 2244 ft 162 kts 234°
2026-05-04 18:05 53.41503 -2.14542 2032 ft 163 kts 234°
2026-05-04 18:05 53.40799 -2.16020 1803 ft 162 kts 234°
2026-05-04 18:05 53.40102 -2.17493 1593 ft 159 kts 234°
2026-05-04 18:06 53.38811 -2.20214 1144 ft 136 kts 234°
2026-05-04 18:06 53.38241 -2.21420 940 ft 128 kts 232°
2026-05-04 18:06 53.37710 -2.22557 762 ft 120 kts 232°
2026-05-04 18:07 53.37209 -2.23637 642 ft 117 kts 233°
2026-05-04 18:07 53.36691 -2.24758 480 ft 122 kts 230°
2026-05-04 18:07 53.36165 -2.25861 303 ft 121 kts 228°
2026-05-04 18:07 53.35661 -2.26901 246 ft 104 kts 232°
2026-05-04 18:08 53.35281 -2.27708 238 ft 58 kts 242°
2026-05-04 18:08 53.35238 -2.28168 233 ft 16 kts 274°
2026-05-04 18:08 53.35264 -2.28213 233 ft 3 kts 344°
2026-05-04 18:08 53.35285 -2.28195 235 ft 5 kts 31°
2026-05-04 18:09 53.35286 -2.28194 235 ft 0 kts 31°
2026-05-04 18:09 53.35300 -2.28193 235 ft 6 kts 359°
2026-05-04 18:10 53.35359 -2.28171 233 ft 5 kts 30°
2026-05-04 18:10 53.35415 -2.28157 234 ft 13 kts
2026-05-04 18:10 53.35522 -2.28092 238 ft 19 kts 34°
2026-05-04 18:10 53.35619 -2.27918 238 ft 21 kts 39°
2026-05-04 18:11 53.35734 -2.27883 239 ft 19 kts 11°
2026-05-04 18:11 53.35767 -2.27873 239 ft 0 kts
2026-05-04 18:12 53.35794 -2.27867 240 ft 7 kts
2026-05-04 18:12 53.35812 -2.27863 240 ft 2 kts
2026-05-04 18:13 53.35840 -2.27858 240 ft 6 kts
2026-05-04 18:13 53.35896 -2.27848 241 ft 10 kts
2026-05-04 18:13 53.35966 -2.27838 241 ft 0 kts
2026-05-04 18:15 53.35990 -2.27834 241 ft 11 kts
2026-05-04 18:15 53.36082 -2.27876 242 ft 16 kts 307°